owner,sensor,date,latitude,longitude,air_pressure(mBar),qcFlag 
TABS,ioos:station:wmo:42043:1,2006-10-01T00:00:00Z,28.9818,-94.9186,1015.73,11111222 
TABS,ioos:station:wmo:42043:1,2006-10-01T00:30:00Z,28.9818,-94.9186,1015.76,11111222 
TABS,ioos:station:wmo:42043:1,2006-10-01T01:00:00Z,28.9818,-94.9186,1016.11,11111222 
TABS,ioos:station:wmo:42043:1,2006-10-01T01:30:00Z,28.9818,-94.9186,1016.32,11111222 
TABS,ioos:station:wmo:42043:1,2006-10-01T02:00:00Z,28.9818,-94.9186,1016.46,11111222 
TABS,ioos:station:wmo:42043:1,2006-10-01T02:30:00Z,28.9818,-94.9186,1016.79,11111222 
TABS,ioos:station:wmo:42043:1,2006-10-01T03:00:00Z,28.9818,-94.9186,1016.97,11111222 
TABS,ioos:station:wmo:42043:1,2006-10-01T03:30:00Z,28.9818,-94.9186,1016.9,11111222 
TABS,ioos:station:wmo:42043:1,2006-10-01T04:00:00Z,28.9818,-94.9186,1016.96,11111222 
TABS,ioos:station:wmo:42043:1,2006-10-01T04:30:00Z,28.9818,-94.9186,1016.85,11111222 
TABS,ioos:station:wmo:42043:1,2006-10-01T05:00:00Z,28.9818,-94.9186,1016.92,11111222 
TABS,ioos:station:wmo:42043:1,2006-10-01T05:30:00Z,28.9818,-94.9186,1016.76,11111222 
TABS,ioos:station:wmo:42043:1,2006-10-01T06:00:00Z,28.9818,-94.9186,1016.62,11111222 
TABS,ioos:station:wmo:42043:1,2006-10-01T06:30:00Z,28.9818,-94.9186,1016.64,11111222 
TABS,ioos:station:wmo:42043:1,2006-10-01T07:00:00Z,28.9818,-94.9186,1016.58,11111222 
TABS,ioos:station:wmo:42043:1,2006-10-01T07:30:00Z,28.9818,-94.9186,1016.67,11111222 
TABS,ioos:station:wmo:42043:1,2006-10-01T08:00:00Z,28.9818,-94.9186,1016.54,11111222 
TABS,ioos:station:wmo:42043:1,2006-10-01T08:30:00Z,28.9818,-94.9186,1016.45,11111222 
TABS,ioos:station:wmo:42043:1,2006-10-01T09:00:00Z,28.9818,-94.9186,1016.5,11111222 
TABS,ioos:station:wmo:42043:1,2006-10-01T09:30:00Z,28.9818,-94.9186,1016.8,11111222 
TABS,ioos:station:wmo:42043:1,2006-10-01T10:00:00Z,28.9818,-94.9186,1016.82,11111222 
TABS,ioos:station:wmo:42043:1,2006-10-01T10:30:00Z,28.9818,-94.9186,1017.09,11111222 
TABS,ioos:station:wmo:42043:1,2006-10-01T11:00:00Z,28.9818,-94.9186,1017.41,11111222 
TABS,ioos:station:wmo:42043:1,2006-10-01T11:30:00Z,28.9818,-94.9186,1017.59,11111222 
TABS,ioos:station:wmo:42043:1,2006-10-01T12:00:00Z,28.9818,-94.9186,1017.87,11111222 
TABS,ioos:station:wmo:42043:1,2006-10-01T12:30:00Z,28.9818,-94.9186,1018.43,11111222 
TABS,ioos:station:wmo:42043:1,2006-10-01T13:00:00Z,28.9818,-94.9186,1018.75,11111222 
TABS,ioos:station:wmo:42043:1,2006-10-01T13:30:00Z,28.9818,-94.9186,1019.16,11111222 
TABS,ioos:station:wmo:42043:1,2006-10-01T14:00:00Z,28.9818,-94.9186,1019.64,11111222 
TABS,ioos:station:wmo:42043:1,2006-10-01T14:30:00Z,28.9818,-94.9186,1020.16,11111222 
TABS,ioos:station:wmo:42043:1,2006-10-01T15:00:00Z,28.9818,-94.9186,1020.47,11111222 
TABS,ioos:station:wmo:42043:1,2006-10-01T15:30:00Z,28.9818,-94.9186,1020.65,11111222 
TABS,ioos:station:wmo:42043:1,2006-10-01T16:00:00Z,28.9818,-94.9186,1020.77,11111222 
TABS,ioos:station:wmo:42043:1,2006-10-01T16:30:00Z,28.9818,-94.9186,1020.87,11111222 
TABS,ioos:station:wmo:42043:1,2006-10-01T17:00:00Z,28.9818,-94.9186,1020.79,11111222 
TABS,ioos:station:wmo:42043:1,2006-10-01T17:30:00Z,28.9818,-94.9186,1020.68,11111222 
TABS,ioos:station:wmo:42043:1,2006-10-01T18:00:00Z,28.9818,-94.9186,1020.36,11111222 
TABS,ioos:station:wmo:42043:1,2006-10-01T18:30:00Z,28.9818,-94.9186,1020.07,11111222 
TABS,ioos:station:wmo:42043:1,2006-10-01T19:00:00Z,28.9818,-94.9186,1019.69,11111222 
TABS,ioos:station:wmo:42043:1,2006-10-01T19:30:00Z,28.9818,-94.9186,1019.27,11111222 
TABS,ioos:station:wmo:42043:1,2006-10-01T20:00:00Z,28.9818,-94.9186,1019.09,11111222 
TABS,ioos:station:wmo:42043:1,2006-10-01T20:30:00Z,28.9818,-94.9186,1018.91,11111222 
TABS,ioos:station:wmo:42043:1,2006-10-01T21:00:00Z,28.9818,-94.9186,1018.71,11111222 
TABS,ioos:station:wmo:42043:1,2006-10-01T21:30:00Z,28.9818,-94.9186,1018.68,11111222 
TABS,ioos:station:wmo:42043:1,2006-10-01T22:00:00Z,28.9818,-94.9186,1018.59,11111222 
TABS,ioos:station:wmo:42043:1,2006-10-01T22:30:00Z,28.9818,-94.9186,1018.54,11111222 
TABS,ioos:station:wmo:42043:1,2006-10-01T23:00:00Z,28.9818,-94.9186,1018.44,11111222 
TABS,ioos:station:wmo:42043:1,2006-10-01T23:30:00Z,28.9818,-94.9186,1018.26,11111222 
TABS,ioos:station:wmo:42043:1,2006-10-02T00:00:00Z,28.9818,-94.9186,1018.3,11111222 
TABS,ioos:station:wmo:42043:1,2006-10-02T00:30:00Z,28.9818,-94.9186,1018.24,11111222 
TABS,ioos:station:wmo:42043:1,2006-10-02T01:00:00Z,28.9818,-94.9186,1018.43,11111222 
TABS,ioos:station:wmo:42043:1,2006-10-02T01:30:00Z,28.9818,-94.9186,1018.63,11111222 
TABS,ioos:station:wmo:42043:1,2006-10-02T02:00:00Z,28.9818,-94.9186,1018.87,11111222 
TABS,ioos:station:wmo:42043:1,2006-10-02T02:30:00Z,28.9818,-94.9186,1019.03,11111222 
TABS,ioos:station:wmo:42043:1,2006-10-02T03:00:00Z,28.9818,-94.9186,1019.18,11111222 
TABS,ioos:station:wmo:42043:1,2006-10-02T03:30:00Z,28.9818,-94.9186,1019.29,11111222 
TABS,ioos:station:wmo:42043:1,2006-10-02T04:00:00Z,28.9818,-94.9186,1019.26,11111222 
TABS,ioos:station:wmo:42043:1,2006-10-02T04:30:00Z,28.9818,-94.9186,1019.22,11111222 
TABS,ioos:station:wmo:42043:1,2006-10-02T05:00:00Z,28.9818,-94.9186,1019.32,11111222 
TABS,ioos:station:wmo:42043:1,2006-10-02T05:30:00Z,28.9818,-94.9186,1019.25,11111222 
TABS,ioos:station:wmo:42043:1,2006-10-02T06:00:00Z,28.9818,-94.9186,1019.01,11111222 
TABS,ioos:station:wmo:42043:1,2006-10-02T06:30:00Z,28.9818,-94.9186,1019.08,11111222 
TABS,ioos:station:wmo:42043:1,2006-10-02T07:00:00Z,28.9818,-94.9186,1019.01,11111222 
TABS,ioos:station:wmo:42043:1,2006-10-02T07:30:00Z,28.9818,-94.9186,1019.04,11111222 
TABS,ioos:station:wmo:42043:1,2006-10-02T08:00:00Z,28.9818,-94.9186,1018.86,11111222 
TABS,ioos:station:wmo:42043:1,2006-10-02T08:30:00Z,28.9818,-94.9186,1018.74,11111222 
TABS,ioos:station:wmo:42043:1,2006-10-02T09:00:00Z,28.9818,-94.9186,1018.86,11111222 
TABS,ioos:station:wmo:42043:1,2006-10-02T09:30:00Z,28.9818,-94.9186,1019.01,11111222 
TABS,ioos:station:wmo:42043:1,2006-10-02T10:00:00Z,28.9818,-94.9186,1019.2,11111222 
TABS,ioos:station:wmo:42043:1,2006-10-02T10:30:00Z,28.9818,-94.9186,1019.24,11111222 
TABS,ioos:station:wmo:42043:1,2006-10-02T11:00:00Z,28.9818,-94.9186,1019.48,11111222 
TABS,ioos:station:wmo:42043:1,2006-10-02T11:30:00Z,28.9818,-94.9186,1019.63,11111222 
TABS,ioos:station:wmo:42043:1,2006-10-02T12:00:00Z,28.9818,-94.9186,1019.66,11111222 
TABS,ioos:station:wmo:42043:1,2006-10-02T12:30:00Z,28.9818,-94.9186,1020.0,11111222 
TABS,ioos:station:wmo:42043:1,2006-10-02T13:00:00Z,28.9818,-94.9186,1020.19,11111222 
TABS,ioos:station:wmo:42043:1,2006-10-02T13:30:00Z,28.9818,-94.9186,1020.59,11111222 
TABS,ioos:station:wmo:42043:1,2006-10-02T14:00:00Z,28.9818,-94.9186,1020.76,11111222 
TABS,ioos:station:wmo:42043:1,2006-10-02T14:30:00Z,28.9818,-94.9186,1021.02,11111222 
TABS,ioos:station:wmo:42043:1,2006-10-02T15:00:00Z,28.9818,-94.9186,1021.24,11111222 
TABS,ioos:station:wmo:42043:1,2006-10-02T15:30:00Z,28.9818,-94.9186,1021.26,11111222 
TABS,ioos:station:wmo:42043:1,2006-10-02T16:00:00Z,28.9818,-94.9186,1021.39,11111222 
TABS,ioos:station:wmo:42043:1,2006-10-02T16:30:00Z,28.9818,-94.9186,1021.47,11111222 
TABS,ioos:station:wmo:42043:1,2006-10-02T17:00:00Z,28.9818,-94.9186,1021.26,11111222 
TABS,ioos:station:wmo:42043:1,2006-10-02T17:30:00Z,28.9818,-94.9186,1021.04,11111222 
TABS,ioos:station:wmo:42043:1,2006-10-02T18:00:00Z,28.9818,-94.9186,1020.75,11111222 
TABS,ioos:station:wmo:42043:1,2006-10-02T18:30:00Z,28.9818,-94.9186,1020.37,11111222 
TABS,ioos:station:wmo:42043:1,2006-10-02T19:00:00Z,28.9818,-94.9186,1020.0,11111222 
TABS,ioos:station:wmo:42043:1,2006-10-02T19:30:00Z,28.9818,-94.9186,1019.65,11111222 
TABS,ioos:station:wmo:42043:1,2006-10-02T20:00:00Z,28.9818,-94.9186,1019.42,11111222 
TABS,ioos:station:wmo:42043:1,2006-10-02T20:30:00Z,28.9818,-94.9186,1019.07,11111222 
TABS,ioos:station:wmo:42043:1,2006-10-02T21:00:00Z,28.9818,-94.9186,1018.77,11111222 
TABS,ioos:station:wmo:42043:1,2006-10-02T21:30:00Z,28.9818,-94.9186,1018.69,11111222 
TABS,ioos:station:wmo:42043:1,2006-10-02T22:00:00Z,28.9818,-94.9186,1018.75,11111222 
TABS,ioos:station:wmo:42043:1,2006-10-02T22:30:00Z,28.9818,-94.9186,1018.59,11111222 
TABS,ioos:station:wmo:42043:1,2006-10-02T23:00:00Z,28.9818,-94.9186,1018.53,11111222 
TABS,ioos:station:wmo:42043:1,2006-10-02T23:30:00Z,28.9818,-94.9186,1018.62,11111222 
TABS,ioos:station:wmo:42043:1,2006-10-03T00:00:00Z,28.9818,-94.9186,1018.8,11111222 
TABS,ioos:station:wmo:42043:1,2006-10-03T00:30:00Z,28.9818,-94.9186,1018.66,11111222 
TABS,ioos:station:wmo:42043:1,2006-10-03T01:00:00Z,28.9818,-94.9186,1019.07,11111222 
TABS,ioos:station:wmo:42043:1,2006-10-03T01:30:00Z,28.9818,-94.9186,1019.27,11111222 
TABS,ioos:station:wmo:42043:1,2006-10-03T02:00:00Z,28.9818,-94.9186,1019.5,11111222 
TABS,ioos:station:wmo:42043:1,2006-10-03T02:30:00Z,28.9818,-94.9186,1019.64,11111222 
TABS,ioos:station:wmo:42043:1,2006-10-03T03:00:00Z,28.9818,-94.9186,1019.79,11111222 
TABS,ioos:station:wmo:42043:1,2006-10-03T03:30:00Z,28.9818,-94.9186,1019.81,11111222 
TABS,ioos:station:wmo:42043:1,2006-10-03T04:00:00Z,28.9818,-94.9186,1020.01,11111222 
TABS,ioos:station:wmo:42043:1,2006-10-03T04:30:00Z,28.9818,-94.9186,1019.92,11111222 
TABS,ioos:station:wmo:42043:1,2006-10-03T05:00:00Z,28.9818,-94.9186,1019.93,11111222 
TABS,ioos:station:wmo:42043:1,2006-10-03T05:30:00Z,28.9818,-94.9186,1019.75,11111222 
TABS,ioos:station:wmo:42043:1,2006-10-03T06:00:00Z,28.9818,-94.9186,1019.62,11111222 
TABS,ioos:station:wmo:42043:1,2006-10-03T06:30:00Z,28.9818,-94.9186,1019.49,11111222 
TABS,ioos:station:wmo:42043:1,2006-10-03T07:00:00Z,28.9818,-94.9186,1019.4,11111222 
TABS,ioos:station:wmo:42043:1,2006-10-03T07:30:00Z,28.9818,-94.9186,1019.49,11111222 
TABS,ioos:station:wmo:42043:1,2006-10-03T08:00:00Z,28.9818,-94.9186,1019.24,11111222 
TABS,ioos:station:wmo:42043:1,2006-10-03T08:30:00Z,28.9818,-94.9186,1018.99,11111222 
TABS,ioos:station:wmo:42043:1,2006-10-03T09:00:00Z,28.9818,-94.9186,1018.86,11111222 
TABS,ioos:station:wmo:42043:1,2006-10-03T09:30:00Z,28.9818,-94.9186,1018.73,11111222 
TABS,ioos:station:wmo:42043:1,2006-10-03T10:00:00Z,28.9818,-94.9186,1018.69,11111222 
TABS,ioos:station:wmo:42043:1,2006-10-03T10:30:00Z,28.9818,-94.9186,1018.93,11111222 
TABS,ioos:station:wmo:42043:1,2006-10-03T11:00:00Z,28.9818,-94.9186,1018.91,11111222 
TABS,ioos:station:wmo:42043:1,2006-10-03T11:30:00Z,28.9818,-94.9186,1019.06,11111222 
TABS,ioos:station:wmo:42043:1,2006-10-03T12:00:00Z,28.9818,-94.9186,1019.4,11111222 
TABS,ioos:station:wmo:42043:1,2006-10-03T12:30:00Z,28.9818,-94.9186,1019.48,11111222 
TABS,ioos:station:wmo:42043:1,2006-10-03T13:00:00Z,28.9818,-94.9186,1019.46,11111222 
TABS,ioos:station:wmo:42043:1,2006-10-03T13:30:00Z,28.9818,-94.9186,1019.78,11111222 
TABS,ioos:station:wmo:42043:1,2006-10-03T14:00:00Z,28.9818,-94.9186,1020.12,11111222 
TABS,ioos:station:wmo:42043:1,2006-10-03T14:30:00Z,28.9818,-94.9186,1020.52,11111222 
TABS,ioos:station:wmo:42043:1,2006-10-03T15:00:00Z,28.9818,-94.9186,1020.68,11111222 
TABS,ioos:station:wmo:42043:1,2006-10-03T15:30:00Z,28.9818,-94.9186,1020.91,11111222 
TABS,ioos:station:wmo:42043:1,2006-10-03T16:00:00Z,28.9818,-94.9186,1020.93,11111222 
TABS,ioos:station:wmo:42043:1,2006-10-03T16:30:00Z,28.9818,-94.9186,1020.79,11111222 
TABS,ioos:station:wmo:42043:1,2006-10-03T17:00:00Z,28.9818,-94.9186,1020.59,11111222 
TABS,ioos:station:wmo:42043:1,2006-10-03T17:30:00Z,28.9818,-94.9186,1020.34,11111222 
TABS,ioos:station:wmo:42043:1,2006-10-03T18:00:00Z,28.9818,-94.9186,1019.96,11111222 
TABS,ioos:station:wmo:42043:1,2006-10-03T18:30:00Z,28.9818,-94.9186,1019.86,11111222 
TABS,ioos:station:wmo:42043:1,2006-10-03T19:00:00Z,28.9818,-94.9186,1019.39,11111222 
TABS,ioos:station:wmo:42043:1,2006-10-03T19:30:00Z,28.9818,-94.9186,1019.05,11111222 
TABS,ioos:station:wmo:42043:1,2006-10-03T20:00:00Z,28.9818,-94.9186,1018.94,11111222 
TABS,ioos:station:wmo:42043:1,2006-10-03T20:30:00Z,28.9818,-94.9186,1018.85,11111222 
TABS,ioos:station:wmo:42043:1,2006-10-03T21:00:00Z,28.9818,-94.9186,1018.83,11111222 
TABS,ioos:station:wmo:42043:1,2006-10-03T21:30:00Z,28.9818,-94.9186,1018.69,11111222 
TABS,ioos:station:wmo:42043:1,2006-10-03T22:00:00Z,28.9818,-94.9186,1018.66,11111222 
TABS,ioos:station:wmo:42043:1,2006-10-03T22:30:00Z,28.9818,-94.9186,1018.56,11111222 
TABS,ioos:station:wmo:42043:1,2006-10-03T23:00:00Z,28.9818,-94.9186,1018.44,11111222 
TABS,ioos:station:wmo:42043:1,2006-10-03T23:30:00Z,28.9818,-94.9186,1018.49,11111222 
TABS,ioos:station:wmo:42043:1,2006-10-04T00:00:00Z,28.9818,-94.9186,1018.41,11111222 
TABS,ioos:station:wmo:42043:1,2006-10-04T00:30:00Z,28.9818,-94.9186,1018.41,11111222 
TABS,ioos:station:wmo:42043:1,2006-10-04T01:00:00Z,28.9818,-94.9186,1018.64,11111222 
TABS,ioos:station:wmo:42043:1,2006-10-04T01:30:00Z,28.9818,-94.9186,1018.87,11111222 
TABS,ioos:station:wmo:42043:1,2006-10-04T02:00:00Z,28.9818,-94.9186,1019.3,11111222 
TABS,ioos:station:wmo:42043:1,2006-10-04T02:30:00Z,28.9818,-94.9186,1019.43,11111222 
TABS,ioos:station:wmo:42043:1,2006-10-04T03:00:00Z,28.9818,-94.9186,1019.39,11111222 
TABS,ioos:station:wmo:42043:1,2006-10-04T03:30:00Z,28.9818,-94.9186,1019.43,11111222 
TABS,ioos:station:wmo:42043:1,2006-10-04T04:00:00Z,28.9818,-94.9186,1019.43,11111222 
TABS,ioos:station:wmo:42043:1,2006-10-04T04:30:00Z,28.9818,-94.9186,1019.34,11111222 
TABS,ioos:station:wmo:42043:1,2006-10-04T05:00:00Z,28.9818,-94.9186,1019.33,11111222 
TABS,ioos:station:wmo:42043:1,2006-10-04T05:30:00Z,28.9818,-94.9186,1019.0,11111222 
TABS,ioos:station:wmo:42043:1,2006-10-04T06:00:00Z,28.9818,-94.9186,1018.85,11111222 
TABS,ioos:station:wmo:42043:1,2006-10-04T06:30:00Z,28.9818,-94.9186,1018.5,11111222 
TABS,ioos:station:wmo:42043:1,2006-10-04T07:00:00Z,28.9818,-94.9186,1018.44,11111222 
TABS,ioos:station:wmo:42043:1,2006-10-04T07:30:00Z,28.9818,-94.9186,1018.32,11111222 
TABS,ioos:station:wmo:42043:1,2006-10-04T08:00:00Z,28.9818,-94.9186,1018.2,11111222 
TABS,ioos:station:wmo:42043:1,2006-10-04T08:30:00Z,28.9818,-94.9186,1017.96,11111222 
TABS,ioos:station:wmo:42043:1,2006-10-04T09:00:00Z,28.9818,-94.9186,1017.76,11111222 
TABS,ioos:station:wmo:42043:1,2006-10-04T09:30:00Z,28.9818,-94.9186,1017.72,11111222 
TABS,ioos:station:wmo:42043:1,2006-10-04T10:00:00Z,28.9818,-94.9186,1017.98,11111222 
TABS,ioos:station:wmo:42043:1,2006-10-04T10:30:00Z,28.9818,-94.9186,1018.03,11111222 
TABS,ioos:station:wmo:42043:1,2006-10-04T11:00:00Z,28.9818,-94.9186,1018.14,11111222 
TABS,ioos:station:wmo:42043:1,2006-10-04T11:30:00Z,28.9818,-94.9186,1018.32,11111222 
TABS,ioos:station:wmo:42043:1,2006-10-04T12:00:00Z,28.9818,-94.9186,1018.42,11111222 
TABS,ioos:station:wmo:42043:1,2006-10-04T12:30:00Z,28.9818,-94.9186,1018.68,11111222 
TABS,ioos:station:wmo:42043:1,2006-10-04T13:00:00Z,28.9818,-94.9186,1018.85,11111222 
TABS,ioos:station:wmo:42043:1,2006-10-04T13:30:00Z,28.9818,-94.9186,1019.38,11111222 
TABS,ioos:station:wmo:42043:1,2006-10-04T14:00:00Z,28.9818,-94.9186,1019.57,11111222 
TABS,ioos:station:wmo:42043:1,2006-10-04T14:30:00Z,28.9818,-94.9186,1019.94,11111222 
TABS,ioos:station:wmo:42043:1,2006-10-04T15:00:00Z,28.9818,-94.9186,1020.26,11111222 
TABS,ioos:station:wmo:42043:1,2006-10-04T15:30:00Z,28.9818,-94.9186,1020.35,11111222 
TABS,ioos:station:wmo:42043:1,2006-10-04T16:00:00Z,28.9818,-94.9186,1020.46,11111222 
TABS,ioos:station:wmo:42043:1,2006-10-04T16:30:00Z,28.9818,-94.9186,1020.45,11111222 
TABS,ioos:station:wmo:42043:1,2006-10-04T17:00:00Z,28.9818,-94.9186,1020.38,11111222 
TABS,ioos:station:wmo:42043:1,2006-10-04T17:30:00Z,28.9818,-94.9186,1020.16,11111222 
TABS,ioos:station:wmo:42043:1,2006-10-04T18:00:00Z,28.9818,-94.9186,1020.0,11111222 
TABS,ioos:station:wmo:42043:1,2006-10-04T18:30:00Z,28.9818,-94.9186,1019.94,11111222 
TABS,ioos:station:wmo:42043:1,2006-10-04T19:00:00Z,28.9818,-94.9186,1019.7,11111222 
TABS,ioos:station:wmo:42043:1,2006-10-04T19:30:00Z,28.9818,-94.9186,1019.3,11111222 
TABS,ioos:station:wmo:42043:1,2006-10-04T20:00:00Z,28.9818,-94.9186,1019.15,11111222 
TABS,ioos:station:wmo:42043:1,2006-10-04T20:30:00Z,28.9818,-94.9186,1019.28,11111222 
TABS,ioos:station:wmo:42043:1,2006-10-04T21:00:00Z,28.9818,-94.9186,1019.14,11111222 
TABS,ioos:station:wmo:42043:1,2006-10-04T21:30:00Z,28.9818,-94.9186,1018.83,11111222 
TABS,ioos:station:wmo:42043:1,2006-10-04T22:00:00Z,28.9818,-94.9186,1019.06,11111222 
TABS,ioos:station:wmo:42043:1,2006-10-04T22:30:00Z,28.9818,-94.9186,1019.1,11111222 
TABS,ioos:station:wmo:42043:1,2006-10-04T23:00:00Z,28.9818,-94.9186,1019.14,11111222 
TABS,ioos:station:wmo:42043:1,2006-10-04T23:30:00Z,28.9818,-94.9186,1019.2,11111222 
TABS,ioos:station:wmo:42043:1,2006-10-05T00:00:00Z,28.9818,-94.9186,1019.48,11111222 
TABS,ioos:station:wmo:42043:1,2006-10-05T00:30:00Z,28.9818,-94.9186,1019.73,11111222 
TABS,ioos:station:wmo:42043:1,2006-10-05T01:00:00Z,28.9818,-94.9186,1019.92,11111222 
TABS,ioos:station:wmo:42043:1,2006-10-05T01:30:00Z,28.9818,-94.9186,1020.0,11111222 
TABS,ioos:station:wmo:42043:1,2006-10-05T02:00:00Z,28.9818,-94.9186,1020.03,11111222 
TABS,ioos:station:wmo:42043:1,2006-10-05T02:30:00Z,28.9818,-94.9186,1019.98,11111222 
TABS,ioos:station:wmo:42043:1,2006-10-05T03:00:00Z,28.9818,-94.9186,1019.97,11111222 
TABS,ioos:station:wmo:42043:1,2006-10-05T03:30:00Z,28.9818,-94.9186,1020.0,11111222 
TABS,ioos:station:wmo:42043:1,2006-10-05T04:00:00Z,28.9818,-94.9186,1019.88,11111222 
TABS,ioos:station:wmo:42043:1,2006-10-05T04:30:00Z,28.9818,-94.9186,1019.74,11111222 
TABS,ioos:station:wmo:42043:1,2006-10-05T05:00:00Z,28.9818,-94.9186,1019.65,11111222 
TABS,ioos:station:wmo:42043:1,2006-10-05T05:30:00Z,28.9818,-94.9186,1019.57,11111222 
TABS,ioos:station:wmo:42043:1,2006-10-05T06:00:00Z,28.9818,-94.9186,1019.27,11111222 
TABS,ioos:station:wmo:42043:1,2006-10-05T06:30:00Z,28.9818,-94.9186,1018.94,11111222 
TABS,ioos:station:wmo:42043:1,2006-10-05T07:00:00Z,28.9818,-94.9186,1018.8,11111222 
TABS,ioos:station:wmo:42043:1,2006-10-05T07:30:00Z,28.9818,-94.9186,1018.73,11111222 
TABS,ioos:station:wmo:42043:1,2006-10-05T08:00:00Z,28.9818,-94.9186,1018.6,11111222 
TABS,ioos:station:wmo:42043:1,2006-10-05T08:30:00Z,28.9818,-94.9186,1018.61,11111222 
TABS,ioos:station:wmo:42043:1,2006-10-05T09:00:00Z,28.9818,-94.9186,1018.43,11111222 
TABS,ioos:station:wmo:42043:1,2006-10-05T09:30:00Z,28.9818,-94.9186,1018.43,11111222 
TABS,ioos:station:wmo:42043:1,2006-10-05T10:00:00Z,28.9818,-94.9186,1018.44,11111222 
TABS,ioos:station:wmo:42043:1,2006-10-05T10:30:00Z,28.9818,-94.9186,1018.64,11111222 
TABS,ioos:station:wmo:42043:1,2006-10-05T11:00:00Z,28.9818,-94.9186,1018.95,11111222 
TABS,ioos:station:wmo:42043:1,2006-10-05T11:30:00Z,28.9818,-94.9186,1019.57,11111222 
TABS,ioos:station:wmo:42043:1,2006-10-05T12:00:00Z,28.9818,-94.9186,1019.83,11111222 
TABS,ioos:station:wmo:42043:1,2006-10-05T12:30:00Z,28.9818,-94.9186,1020.01,11111222 
TABS,ioos:station:wmo:42043:1,2006-10-05T13:00:00Z,28.9818,-94.9186,1020.3,11111222 
TABS,ioos:station:wmo:42043:1,2006-10-05T13:30:00Z,28.9818,-94.9186,1020.78,11111222 
TABS,ioos:station:wmo:42043:1,2006-10-05T14:00:00Z,28.9818,-94.9186,1021.21,11111222 
TABS,ioos:station:wmo:42043:1,2006-10-05T14:30:00Z,28.9818,-94.9186,1021.31,11111222 
TABS,ioos:station:wmo:42043:1,2006-10-05T15:00:00Z,28.9818,-94.9186,1021.56,11111222 
TABS,ioos:station:wmo:42043:1,2006-10-05T15:30:00Z,28.9818,-94.9186,1021.78,11111222 
TABS,ioos:station:wmo:42043:1,2006-10-05T16:00:00Z,28.9818,-94.9186,1021.73,11111222 
TABS,ioos:station:wmo:42043:1,2006-10-05T16:30:00Z,28.9818,-94.9186,1021.73,11111222 
TABS,ioos:station:wmo:42043:1,2006-10-05T17:00:00Z,28.9818,-94.9186,1021.52,11111222 
TABS,ioos:station:wmo:42043:1,2006-10-05T17:30:00Z,28.9818,-94.9186,1021.24,11111222 
TABS,ioos:station:wmo:42043:1,2006-10-05T18:00:00Z,28.9818,-94.9186,1020.73,11111222 
TABS,ioos:station:wmo:42043:1,2006-10-05T18:30:00Z,28.9818,-94.9186,1020.09,11111222 
TABS,ioos:station:wmo:42043:1,2006-10-05T19:00:00Z,28.9818,-94.9186,1019.63,11111222 
TABS,ioos:station:wmo:42043:1,2006-10-05T19:30:00Z,28.9818,-94.9186,1019.07,11111222 
TABS,ioos:station:wmo:42043:1,2006-10-05T20:00:00Z,28.9818,-94.9186,1018.83,11111222 
TABS,ioos:station:wmo:42043:1,2006-10-05T20:30:00Z,28.9818,-94.9186,1018.58,11111222 
TABS,ioos:station:wmo:42043:1,2006-10-05T21:00:00Z,28.9818,-94.9186,1018.26,11111222 
TABS,ioos:station:wmo:42043:1,2006-10-05T21:30:00Z,28.9818,-94.9186,1018.02,11111222 
TABS,ioos:station:wmo:42043:1,2006-10-05T22:00:00Z,28.9818,-94.9186,1017.83,11111222 
TABS,ioos:station:wmo:42043:1,2006-10-05T22:30:00Z,28.9818,-94.9186,1017.81,11111222 
TABS,ioos:station:wmo:42043:1,2006-10-05T23:00:00Z,28.9818,-94.9186,1017.61,11111222 
TABS,ioos:station:wmo:42043:1,2006-10-05T23:30:00Z,28.9818,-94.9186,1017.72,11111222 
TABS,ioos:station:wmo:42043:1,2006-10-06T00:00:00Z,28.9818,-94.9186,1017.8,11111222 
TABS,ioos:station:wmo:42043:1,2006-10-06T00:30:00Z,28.9818,-94.9186,1018.07,11111222 
TABS,ioos:station:wmo:42043:1,2006-10-06T01:00:00Z,28.9818,-94.9186,1018.11,11111222 
TABS,ioos:station:wmo:42043:1,2006-10-06T01:30:00Z,28.9818,-94.9186,1018.17,11111222 
TABS,ioos:station:wmo:42043:1,2006-10-06T02:00:00Z,28.9818,-94.9186,1018.59,11111222 
TABS,ioos:station:wmo:42043:1,2006-10-06T02:30:00Z,28.9818,-94.9186,1018.67,11111222 
TABS,ioos:station:wmo:42043:1,2006-10-06T03:00:00Z,28.9818,-94.9186,1018.8,11111222 
TABS,ioos:station:wmo:42043:1,2006-10-06T03:30:00Z,28.9818,-94.9186,1018.85,11111222 
TABS,ioos:station:wmo:42043:1,2006-10-06T04:00:00Z,28.9818,-94.9186,1018.81,11111222 
TABS,ioos:station:wmo:42043:1,2006-10-06T04:30:00Z,28.9818,-94.9186,1018.9,11111222 
TABS,ioos:station:wmo:42043:1,2006-10-06T05:00:00Z,28.9818,-94.9186,1018.64,11111222 
TABS,ioos:station:wmo:42043:1,2006-10-06T05:30:00Z,28.9818,-94.9186,1018.63,11111222 
TABS,ioos:station:wmo:42043:1,2006-10-06T06:00:00Z,28.9818,-94.9186,1018.57,11111222 
TABS,ioos:station:wmo:42043:1,2006-10-06T06:30:00Z,28.9818,-94.9186,1018.28,11111222 
TABS,ioos:station:wmo:42043:1,2006-10-06T07:00:00Z,28.9818,-94.9186,1018.43,11111222 
TABS,ioos:station:wmo:42043:1,2006-10-06T07:30:00Z,28.9818,-94.9186,1018.49,11111222 
TABS,ioos:station:wmo:42043:1,2006-10-06T08:00:00Z,28.9818,-94.9186,1018.46,11111222 
TABS,ioos:station:wmo:42043:1,2006-10-06T08:30:00Z,28.9818,-94.9186,1018.33,11111222 
TABS,ioos:station:wmo:42043:1,2006-10-06T09:00:00Z,28.9818,-94.9186,1018.32,11111222 
TABS,ioos:station:wmo:42043:1,2006-10-06T09:30:00Z,28.9818,-94.9186,1018.29,11111222 
TABS,ioos:station:wmo:42043:1,2006-10-06T10:00:00Z,28.9818,-94.9186,1018.42,11111222 
TABS,ioos:station:wmo:42043:1,2006-10-06T10:30:00Z,28.9818,-94.9186,1018.58,11111222 
TABS,ioos:station:wmo:42043:1,2006-10-06T11:00:00Z,28.9818,-94.9186,1018.87,11111222 
TABS,ioos:station:wmo:42043:1,2006-10-06T11:30:00Z,28.9818,-94.9186,1019.11,11111222 
TABS,ioos:station:wmo:42043:1,2006-10-06T12:00:00Z,28.9818,-94.9186,1019.29,11111222 
TABS,ioos:station:wmo:42043:1,2006-10-06T12:30:00Z,28.9818,-94.9186,1019.45,11111222 
TABS,ioos:station:wmo:42043:1,2006-10-06T13:00:00Z,28.9818,-94.9186,1019.67,11111222 
TABS,ioos:station:wmo:42043:1,2006-10-06T13:30:00Z,28.9818,-94.9186,1019.91,11111222 
TABS,ioos:station:wmo:42043:1,2006-10-06T14:00:00Z,28.9818,-94.9186,1020.1,11111222 
TABS,ioos:station:wmo:42043:1,2006-10-06T14:30:00Z,28.9818,-94.9186,1020.5,11111222 
TABS,ioos:station:wmo:42043:1,2006-10-06T15:00:00Z,28.9818,-94.9186,1020.64,11111222 
TABS,ioos:station:wmo:42043:1,2006-10-06T15:30:00Z,28.9818,-94.9186,1020.68,11111222 
TABS,ioos:station:wmo:42043:1,2006-10-06T16:00:00Z,28.9818,-94.9186,1020.76,11111222 
TABS,ioos:station:wmo:42043:1,2006-10-06T16:30:00Z,28.9818,-94.9186,1020.57,11111222 
TABS,ioos:station:wmo:42043:1,2006-10-06T17:00:00Z,28.9818,-94.9186,1020.43,11111222 
TABS,ioos:station:wmo:42043:1,2006-10-06T17:30:00Z,28.9818,-94.9186,1020.31,11111222 
TABS,ioos:station:wmo:42043:1,2006-10-06T18:00:00Z,28.9818,-94.9186,1019.93,11111222 
TABS,ioos:station:wmo:42043:1,2006-10-06T18:30:00Z,28.9818,-94.9186,1019.38,11111222 